Year,Month,Day,Hour,Minute,Value (Times are PST for temperature in C)
2016,06,16,00,00,8.40
2016,06,16,00,01,8.40
2016,06,16,00,02,8.30
2016,06,16,00,03,8.30
2016,06,16,00,04,8.30
2016,06,16,00,05,8.30
2016,06,16,00,06,8.30
2016,06,16,00,07,8.20
2016,06,16,00,08,8.20
2016,06,16,00,09,8.20
2016,06,16,00,10,8.20
2016,06,16,00,11,8.20
2016,06,16,00,12,8.10
2016,06,16,00,13,8.10
2016,06,16,00,14,8.10
2016,06,16,00,15,8.10
2016,06,16,00,16,8.10
2016,06,16,00,17,8.10
2016,06,16,00,18,8.10
2016,06,16,00,19,8.00
2016,06,16,00,20,8.00
2016,06,16,00,21,8.00
2016,06,16,00,22,8.00
2016,06,16,00,23,8.00
2016,06,16,00,24,8.00
2016,06,16,00,25,7.90
2016,06,16,00,26,7.90
2016,06,16,00,27,7.90
2016,06,16,00,28,7.90
2016,06,16,00,29,7.90
2016,06,16,00,30,7.80
2016,06,16,00,31,7.80
2016,06,16,00,32,7.80
2016,06,16,00,33,7.80
2016,06,16,00,34,7.80
2016,06,16,00,35,7.80
2016,06,16,00,36,7.70
2016,06,16,00,37,7.70
2016,06,16,00,38,7.70
2016,06,16,00,39,7.70
2016,06,16,00,40,7.70
2016,06,16,00,41,7.70
2016,06,16,00,42,7.70
2016,06,16,00,43,7.70
2016,06,16,00,44,7.60
2016,06,16,00,45,7.60
2016,06,16,00,46,7.60
2016,06,16,00,47,7.60
2016,06,16,00,48,7.60
2016,06,16,00,49,7.50
2016,06,16,00,50,7.50
2016,06,16,00,51,7.50
2016,06,16,00,52,7.50
2016,06,16,00,53,7.40
2016,06,16,00,54,7.40
2016,06,16,00,55,7.40
2016,06,16,00,56,7.40
2016,06,16,00,57,7.40
2016,06,16,00,58,7.40
2016,06,16,00,59,7.40
2016,06,16,01,00,7.40
2016,06,16,01,01,7.40
2016,06,16,01,02,7.30
2016,06,16,01,03,7.30
2016,06,16,01,04,7.30
2016,06,16,01,05,7.30
2016,06,16,01,06,7.30
2016,06,16,01,07,7.30
2016,06,16,01,08,7.30
2016,06,16,01,09,7.20
2016,06,16,01,10,7.20
2016,06,16,01,11,7.20
2016,06,16,01,12,7.20
2016,06,16,01,13,7.20
2016,06,16,01,14,7.10
2016,06,16,01,15,7.10
2016,06,16,01,16,7.10
2016,06,16,01,17,7.00
2016,06,16,01,18,7.00
2016,06,16,01,19,7.00
2016,06,16,01,20,6.90
2016,06,16,01,21,6.90
2016,06,16,01,22,6.90
2016,06,16,01,23,6.80
2016,06,16,01,24,6.80
2016,06,16,01,25,6.80
2016,06,16,01,26,6.80
2016,06,16,01,27,6.70
2016,06,16,01,28,6.70
2016,06,16,01,29,6.70
2016,06,16,01,30,6.70
2016,06,16,01,31,6.60
2016,06,16,01,32,6.60
2016,06,16,01,33,6.60
2016,06,16,01,34,6.60
2016,06,16,01,35,6.50
2016,06,16,01,36,6.50
2016,06,16,01,37,6.50
2016,06,16,01,38,6.50
2016,06,16,01,39,6.40
2016,06,16,01,40,6.40
2016,06,16,01,41,6.40
2016,06,16,01,42,6.40
2016,06,16,01,43,6.40
2016,06,16,01,44,6.40
2016,06,16,01,45,6.40
2016,06,16,01,46,6.40
2016,06,16,01,47,6.40
2016,06,16,01,48,6.40
2016,06,16,01,49,6.40
2016,06,16,01,50,6.30
2016,06,16,01,51,6.30
2016,06,16,01,52,6.30
2016,06,16,01,53,6.30
2016,06,16,01,54,6.30
2016,06,16,01,55,6.30
2016,06,16,01,56,6.20
2016,06,16,01,57,6.20
2016,06,16,01,58,6.20
2016,06,16,01,59,6.20
2016,06,16,02,00,6.20
2016,06,16,02,01,6.20
2016,06,16,02,02,6.20
2016,06,16,02,03,6.20
2016,06,16,02,04,6.20
2016,06,16,02,05,6.20
2016,06,16,02,06,6.20
2016,06,16,02,07,6.20
2016,06,16,02,08,6.20
2016,06,16,02,09,6.10
2016,06,16,02,10,6.10
2016,06,16,02,11,6.10
2016,06,16,02,12,6.10
2016,06,16,02,13,6.10
2016,06,16,02,14,6.00
2016,06,16,02,15,6.00
2016,06,16,02,16,5.90
2016,06,16,02,17,5.90
2016,06,16,02,18,5.90
2016,06,16,02,19,5.90
2016,06,16,02,20,5.90
2016,06,16,02,21,5.90
2016,06,16,02,22,5.80
2016,06,16,02,23,5.80
2016,06,16,02,24,5.80
2016,06,16,02,25,5.80
2016,06,16,02,26,5.70
2016,06,16,02,27,5.70
2016,06,16,02,28,5.70
2016,06,16,02,29,5.80
2016,06,16,02,30,5.80
2016,06,16,02,31,5.80
2016,06,16,02,32,5.80
2016,06,16,02,33,5.80
2016,06,16,02,34,5.80
2016,06,16,02,35,5.80
2016,06,16,02,36,5.80
2016,06,16,02,37,5.80
2016,06,16,02,38,5.80
2016,06,16,02,39,5.80
2016,06,16,02,40,5.80
2016,06,16,02,41,5.80
2016,06,16,02,42,5.70
2016,06,16,02,43,5.70
2016,06,16,02,44,5.70
2016,06,16,02,45,5.70
2016,06,16,02,46,5.60
2016,06,16,02,47,5.60
2016,06,16,02,48,5.60
2016,06,16,02,49,5.60
2016,06,16,02,50,5.50
2016,06,16,02,51,5.50
2016,06,16,02,52,5.40
2016,06,16,02,53,5.40
2016,06,16,02,54,5.40
2016,06,16,02,55,5.40
2016,06,16,02,56,5.40
2016,06,16,02,57,5.40
2016,06,16,02,58,5.40
2016,06,16,02,59,5.40
2016,06,16,03,00,5.30
2016,06,16,03,01,5.30
2016,06,16,03,02,5.30
2016,06,16,03,03,5.30
2016,06,16,03,04,5.30
2016,06,16,03,05,5.30
2016,06,16,03,06,5.30
2016,06,16,03,07,5.20
2016,06,16,03,08,5.20
2016,06,16,03,09,5.20
2016,06,16,03,10,5.20
2016,06,16,03,11,5.20
2016,06,16,03,12,5.20
2016,06,16,03,13,5.20
2016,06,16,03,14,5.20
2016,06,16,03,15,5.10
2016,06,16,03,16,5.10
2016,06,16,03,17,5.00
2016,06,16,03,18,5.00
2016,06,16,03,19,4.90
2016,06,16,03,20,4.90
2016,06,16,03,21,4.80
2016,06,16,03,22,4.70
2016,06,16,03,23,4.70
2016,06,16,03,24,4.70
2016,06,16,03,25,4.60
2016,06,16,03,26,4.60
2016,06,16,03,27,4.60
2016,06,16,03,28,4.60
2016,06,16,03,29,4.60
2016,06,16,03,30,4.60
2016,06,16,03,31,4.60
2016,06,16,03,32,4.60
2016,06,16,03,33,4.60
2016,06,16,03,34,4.60
2016,06,16,03,35,4.60
2016,06,16,03,36,4.60
2016,06,16,03,37,4.60
2016,06,16,03,38,4.70
2016,06,16,03,39,4.70
2016,06,16,03,40,4.60
2016,06,16,03,41,4.60
2016,06,16,03,42,4.60
2016,06,16,03,43,4.60
2016,06,16,03,44,4.60
2016,06,16,03,45,4.60
2016,06,16,03,46,4.60
2016,06,16,03,47,4.60
2016,06,16,03,48,4.60
2016,06,16,03,49,4.60
2016,06,16,03,50,4.50
2016,06,16,03,51,4.50
2016,06,16,03,52,4.40
2016,06,16,03,53,4.40
2016,06,16,03,54,4.30
2016,06,16,03,55,4.30
2016,06,16,03,56,4.30
2016,06,16,03,57,4.30
2016,06,16,03,58,4.30
2016,06,16,03,59,4.20
2016,06,16,04,00,4.20
2016,06,16,04,01,4.20
2016,06,16,04,02,4.20
2016,06,16,04,03,4.20
2016,06,16,04,04,4.20
2016,06,16,04,05,4.20
2016,06,16,04,06,4.20
2016,06,16,04,07,4.20
2016,06,16,04,08,4.20
2016,06,16,04,09,4.20
2016,06,16,04,10,4.20
2016,06,16,04,11,4.20
2016,06,16,04,12,4.20
2016,06,16,04,13,4.20
2016,06,16,04,14,4.20
2016,06,16,04,15,4.10
2016,06,16,04,16,4.10
2016,06,16,04,17,4.10
2016,06,16,04,18,4.00
2016,06,16,04,19,4.00
2016,06,16,04,20,4.00
2016,06,16,04,21,4.00
2016,06,16,04,22,3.90
2016,06,16,04,23,3.90
2016,06,16,04,24,3.90
2016,06,16,04,25,3.90
2016,06,16,04,26,3.90
2016,06,16,04,27,3.80
2016,06,16,04,28,3.80
2016,06,16,04,29,3.80
2016,06,16,04,30,3.80
2016,06,16,04,31,3.80
2016,06,16,04,32,3.70
2016,06,16,04,33,3.70
2016,06,16,04,34,3.70
2016,06,16,04,35,3.70
2016,06,16,04,36,3.60
2016,06,16,04,37,3.60
2016,06,16,04,38,3.60
2016,06,16,04,39,3.70
2016,06,16,04,40,3.70
2016,06,16,04,41,3.70
2016,06,16,04,42,3.70
2016,06,16,04,43,3.70
2016,06,16,04,44,3.70
2016,06,16,04,45,3.70
2016,06,16,04,46,3.70
2016,06,16,04,47,3.80
2016,06,16,04,48,3.80
2016,06,16,04,49,3.80
2016,06,16,04,50,3.80
2016,06,16,04,51,3.80
2016,06,16,04,52,3.80
2016,06,16,04,53,3.80
2016,06,16,04,54,3.70
2016,06,16,04,55,3.70
2016,06,16,04,56,3.70
2016,06,16,04,57,3.70
2016,06,16,04,58,3.60
2016,06,16,04,59,3.60
2016,06,16,05,00,3.60
2016,06,16,05,01,3.50
2016,06,16,05,02,3.50
2016,06,16,05,03,3.50
2016,06,16,05,04,3.50
2016,06,16,05,05,3.40
2016,06,16,05,06,3.40
2016,06,16,05,07,3.40
2016,06,16,05,08,3.40
2016,06,16,05,09,3.40
2016,06,16,05,10,3.40
2016,06,16,05,11,3.40
2016,06,16,05,12,3.40
2016,06,16,05,13,3.40
2016,06,16,05,14,3.40
2016,06,16,05,15,3.40
2016,06,16,05,16,3.40
2016,06,16,05,17,3.40
2016,06,16,05,18,3.40
2016,06,16,05,19,3.40
2016,06,16,05,20,3.40
2016,06,16,05,21,3.40
2016,06,16,05,22,3.40
2016,06,16,05,23,3.40
2016,06,16,05,24,3.40
2016,06,16,05,25,3.40
2016,06,16,05,26,3.40
2016,06,16,05,27,3.40
2016,06,16,05,28,3.40
2016,06,16,05,29,3.40
2016,06,16,05,30,3.40
2016,06,16,05,31,3.40
2016,06,16,05,32,3.40
2016,06,16,05,33,3.30
2016,06,16,05,34,3.30
2016,06,16,05,35,3.30
2016,06,16,05,36,3.30
2016,06,16,05,37,3.30
2016,06,16,05,38,3.30
2016,06,16,05,39,3.30
2016,06,16,05,40,3.30
2016,06,16,05,41,3.30
2016,06,16,05,42,3.30
2016,06,16,05,43,3.30
2016,06,16,05,44,3.30
2016,06,16,05,45,3.30
2016,06,16,05,46,3.30
2016,06,16,05,47,3.30
2016,06,16,05,48,3.40
2016,06,16,05,49,3.40
2016,06,16,05,50,3.40
2016,06,16,05,51,3.40
2016,06,16,05,52,3.30
2016,06,16,05,53,3.30
2016,06,16,05,54,3.20
2016,06,16,05,55,3.20
2016,06,16,05,56,3.20
2016,06,16,05,57,3.10
2016,06,16,05,58,3.10
2016,06,16,05,59,3.10
2016,06,16,06,00,3.10
2016,06,16,06,01,3.10
2016,06,16,06,02,3.10
2016,06,16,06,03,3.10
2016,06,16,06,04,3.10
2016,06,16,06,05,3.10
2016,06,16,06,06,3.20
2016,06,16,06,07,3.20
2016,06,16,06,08,3.20
2016,06,16,06,09,3.20
2016,06,16,06,10,3.30
2016,06,16,06,11,3.30
2016,06,16,06,12,3.30
2016,06,16,06,13,3.30
2016,06,16,06,14,3.40
2016,06,16,06,15,3.40
2016,06,16,06,16,3.50
2016,06,16,06,17,3.50
2016,06,16,06,18,3.60
2016,06,16,06,19,3.60
2016,06,16,06,20,3.70
2016,06,16,06,21,3.70
2016,06,16,06,22,3.80
2016,06,16,06,23,3.80
2016,06,16,06,24,3.80
2016,06,16,06,25,3.80
2016,06,16,06,26,3.90
2016,06,16,06,27,3.90
2016,06,16,06,28,4.00
2016,06,16,06,29,4.00
2016,06,16,06,30,4.10
2016,06,16,06,31,4.10
2016,06,16,06,32,4.20
2016,06,16,06,33,4.20
2016,06,16,06,34,4.20
2016,06,16,06,35,4.30
2016,06,16,06,36,4.30
2016,06,16,06,37,4.30
2016,06,16,06,38,4.40
2016,06,16,06,39,4.40
2016,06,16,06,40,4.40
2016,06,16,06,41,4.50
2016,06,16,06,42,4.50
2016,06,16,06,43,4.50
2016,06,16,06,44,4.60
2016,06,16,06,45,4.60
2016,06,16,06,46,4.60
2016,06,16,06,47,4.60
2016,06,16,06,48,4.60
2016,06,16,06,49,4.70
2016,06,16,06,50,4.70
2016,06,16,06,51,4.70
2016,06,16,06,52,4.80
2016,06,16,06,53,4.80
2016,06,16,06,54,4.80
2016,06,16,06,55,4.90
2016,06,16,06,56,4.90
2016,06,16,06,57,5.00
2016,06,16,06,58,5.00
2016,06,16,06,59,5.10
2016,06,16,07,00,5.10
2016,06,16,07,01,5.20
2016,06,16,07,02,5.20
2016,06,16,07,03,5.30
2016,06,16,07,04,5.30
2016,06,16,07,05,5.40
2016,06,16,07,06,5.40
2016,06,16,07,07,5.50
2016,06,16,07,08,5.50
2016,06,16,07,09,5.60
2016,06,16,07,10,5.60
2016,06,16,07,11,5.60
2016,06,16,07,12,5.70
2016,06,16,07,13,5.70
2016,06,16,07,14,5.70
2016,06,16,07,15,5.80
2016,06,16,07,16,5.80
2016,06,16,07,17,5.90
2016,06,16,07,18,5.90
2016,06,16,07,19,6.00
2016,06,16,07,20,6.00
2016,06,16,07,21,6.10
2016,06,16,07,22,6.20
2016,06,16,07,23,6.20
2016,06,16,07,24,6.30
2016,06,16,07,25,6.30
2016,06,16,07,26,6.40
2016,06,16,07,27,6.40
2016,06,16,07,28,6.50
2016,06,16,07,29,6.50
2016,06,16,07,30,6.60
2016,06,16,07,31,6.60
2016,06,16,07,32,6.70
2016,06,16,07,33,6.80
2016,06,16,07,34,6.80
2016,06,16,07,35,6.90
2016,06,16,07,36,6.90
2016,06,16,07,37,7.00
2016,06,16,07,38,7.10
2016,06,16,07,39,7.10
2016,06,16,07,40,7.20
2016,06,16,07,41,7.30
2016,06,16,07,42,7.30
2016,06,16,07,43,7.40
2016,06,16,07,44,7.50
2016,06,16,07,45,7.60
2016,06,16,07,46,7.60
2016,06,16,07,47,7.70
2016,06,16,07,48,7.80
2016,06,16,07,49,7.90
2016,06,16,07,50,8.00
2016,06,16,07,51,8.10
2016,06,16,07,52,8.20
2016,06,16,07,53,8.30
2016,06,16,07,54,8.40
2016,06,16,07,55,8.50
2016,06,16,07,56,8.60
2016,06,16,07,57,8.70
2016,06,16,07,58,8.80
2016,06,16,07,59,8.90
2016,06,16,08,00,9.00
2016,06,16,08,01,9.10
2016,06,16,08,02,9.10
2016,06,16,08,03,9.20
2016,06,16,08,04,9.30
2016,06,16,08,05,9.30
2016,06,16,08,06,9.30
2016,06,16,08,07,9.40
2016,06,16,08,08,9.40
2016,06,16,08,09,9.50
2016,06,16,08,10,9.50
2016,06,16,08,11,9.60
2016,06,16,08,12,9.60
2016,06,16,08,13,9.70
2016,06,16,08,14,9.70
2016,06,16,08,15,9.80
2016,06,16,08,16,9.80
2016,06,16,08,17,9.80
2016,06,16,08,18,9.80
2016,06,16,08,19,9.80
2016,06,16,08,20,9.80
2016,06,16,08,21,9.90
2016,06,16,08,22,9.90
2016,06,16,08,23,10.00
2016,06,16,08,24,10.10
2016,06,16,08,25,10.20
2016,06,16,08,26,10.30
2016,06,16,08,27,10.30
2016,06,16,08,28,10.40
2016,06,16,08,29,10.40
2016,06,16,08,30,10.50
2016,06,16,08,31,10.60
2016,06,16,08,32,10.60
2016,06,16,08,33,10.70
2016,06,16,08,34,10.80
2016,06,16,08,35,10.90
2016,06,16,08,36,11.10
2016,06,16,08,37,11.20
2016,06,16,08,38,11.40
2016,06,16,08,39,11.50
2016,06,16,08,40,11.70
2016,06,16,08,41,11.80
2016,06,16,08,42,11.90
2016,06,16,08,43,12.00
2016,06,16,08,44,12.10
2016,06,16,08,45,12.20
2016,06,16,08,46,12.30
2016,06,16,08,47,12.30
2016,06,16,08,48,12.40
2016,06,16,08,49,12.40
2016,06,16,08,50,12.50
2016,06,16,08,51,12.50
2016,06,16,08,52,12.60
2016,06,16,08,53,12.70
2016,06,16,08,54,12.70
2016,06,16,08,55,12.70
2016,06,16,08,56,12.60
2016,06,16,08,57,12.60
2016,06,16,08,58,12.60
2016,06,16,08,59,12.60
2016,06,16,09,00,12.60
2016,06,16,09,01,12.60
2016,06,16,09,02,12.60
2016,06,16,09,03,12.70
2016,06,16,09,04,12.60
2016,06,16,09,05,12.60
2016,06,16,09,06,12.70
2016,06,16,09,07,12.70
2016,06,16,09,08,12.80
2016,06,16,09,09,12.80
2016,06,16,09,10,12.80
2016,06,16,09,11,12.90
2016,06,16,09,12,12.90
2016,06,16,09,13,13.00
2016,06,16,09,14,13.00
2016,06,16,09,15,13.10
2016,06,16,09,16,13.10
2016,06,16,09,17,13.20
2016,06,16,09,18,13.30
2016,06,16,09,19,13.30
2016,06,16,09,20,13.30
2016,06,16,09,21,13.30
2016,06,16,09,22,13.20
2016,06,16,09,23,13.20
2016,06,16,09,24,13.20
2016,06,16,09,25,13.20
2016,06,16,09,26,13.30
2016,06,16,09,27,13.30
2016,06,16,09,28,13.30
2016,06,16,09,29,13.30
2016,06,16,09,30,13.30
2016,06,16,09,31,13.30
2016,06,16,09,32,13.30
2016,06,16,09,33,13.40
2016,06,16,09,34,13.40
2016,06,16,09,35,13.40
2016,06,16,09,36,13.50
2016,06,16,09,37,13.50
2016,06,16,09,38,13.60
2016,06,16,09,39,13.70
2016,06,16,09,40,13.80
2016,06,16,09,41,13.90
2016,06,16,09,42,14.00
2016,06,16,09,43,14.10
2016,06,16,09,44,14.10
2016,06,16,09,45,14.20
2016,06,16,09,46,14.30
2016,06,16,09,47,14.40
2016,06,16,09,48,14.40
2016,06,16,09,49,14.50
2016,06,16,09,50,14.50
2016,06,16,09,51,14.60
2016,06,16,09,52,14.60
2016,06,16,09,53,14.60
2016,06,16,09,54,14.50
2016,06,16,09,55,14.50
2016,06,16,09,56,14.50
2016,06,16,09,57,14.40
2016,06,16,09,58,14.30
2016,06,16,09,59,14.30
2016,06,16,10,00,14.20
2016,06,16,10,01,14.20
2016,06,16,10,02,14.20
2016,06,16,10,03,14.20
2016,06,16,10,04,14.30
2016,06,16,10,05,14.30
2016,06,16,10,06,14.40
2016,06,16,10,07,14.40
2016,06,16,10,08,14.50
2016,06,16,10,09,14.40
2016,06,16,10,10,14.40
2016,06,16,10,11,14.40
2016,06,16,10,12,14.30
2016,06,16,10,13,14.30
2016,06,16,10,14,14.40
2016,06,16,10,15,14.40
2016,06,16,10,16,14.40
2016,06,16,10,17,14.30
2016,06,16,10,18,14.30
2016,06,16,10,19,14.30
2016,06,16,10,20,14.30
2016,06,16,10,21,14.30
2016,06,16,10,22,14.30
2016,06,16,10,23,14.30
2016,06,16,10,24,14.30
2016,06,16,10,25,14.30
2016,06,16,10,26,14.30
2016,06,16,10,27,14.40
2016,06,16,10,28,14.50
2016,06,16,10,29,14.50
2016,06,16,10,30,14.60
2016,06,16,10,31,14.70
2016,06,16,10,32,14.80
2016,06,16,10,33,14.90
2016,06,16,10,34,15.10
2016,06,16,10,35,15.20
2016,06,16,10,36,15.20
2016,06,16,10,37,15.30
2016,06,16,10,38,15.30
2016,06,16,10,39,15.40
2016,06,16,10,40,15.40
2016,06,16,10,41,15.30
2016,06,16,10,42,15.30
2016,06,16,10,43,15.30
2016,06,16,10,44,15.30
2016,06,16,10,45,15.30
2016,06,16,10,46,15.30
2016,06,16,10,47,15.20
2016,06,16,10,48,15.20
2016,06,16,10,49,15.20
2016,06,16,10,50,15.20
2016,06,16,10,51,15.30
2016,06,16,10,52,15.30
2016,06,16,10,53,15.40
2016,06,16,10,54,15.40
2016,06,16,10,55,15.40
2016,06,16,10,56,15.50
2016,06,16,10,57,15.50
2016,06,16,10,58,15.60
2016,06,16,10,59,15.60
2016,06,16,11,00,15.50
2016,06,16,11,01,15.40
2016,06,16,11,02,15.40
2016,06,16,11,03,15.30
2016,06,16,11,04,15.30
2016,06,16,11,05,15.30
2016,06,16,11,06,15.40
2016,06,16,11,07,15.50
2016,06,16,11,08,15.50
2016,06,16,11,09,15.50
2016,06,16,11,10,15.40
2016,06,16,11,11,15.30
2016,06,16,11,12,15.30
2016,06,16,11,13,15.20
2016,06,16,11,14,15.10
2016,06,16,11,15,15.10
2016,06,16,11,16,15.00
2016,06,16,11,17,15.00
2016,06,16,11,18,15.00
2016,06,16,11,19,15.00
2016,06,16,11,20,15.10
2016,06,16,11,21,15.10
2016,06,16,11,22,15.10
2016,06,16,11,23,15.10
2016,06,16,11,24,15.20
2016,06,16,11,25,15.20
2016,06,16,11,26,15.30
2016,06,16,11,27,15.30
2016,06,16,11,28,15.40
2016,06,16,11,29,15.50
2016,06,16,11,30,15.50
2016,06,16,11,31,15.50
2016,06,16,11,32,15.40
2016,06,16,11,33,15.30
2016,06,16,11,34,15.30
2016,06,16,11,35,15.20
2016,06,16,11,36,15.20
2016,06,16,11,37,15.10
2016,06,16,11,38,15.20
2016,06,16,11,39,15.20
2016,06,16,11,40,15.30
2016,06,16,11,41,15.30
2016,06,16,11,42,15.30
2016,06,16,11,43,15.30
2016,06,16,11,44,15.40
2016,06,16,11,45,15.40
2016,06,16,11,46,15.40
2016,06,16,11,47,15.40
2016,06,16,11,48,15.40
2016,06,16,11,49,15.40
2016,06,16,11,50,15.50
2016,06,16,11,51,15.50
2016,06,16,11,52,15.60
2016,06,16,11,53,15.60
2016,06,16,11,54,15.50
2016,06,16,11,55,15.50
2016,06,16,11,56,15.50
2016,06,16,11,57,15.60
2016,06,16,11,58,15.60
2016,06,16,11,59,15.70
2016,06,16,12,00,15.70
2016,06,16,12,01,15.80
2016,06,16,12,02,15.90
2016,06,16,12,03,16.00
2016,06,16,12,04,16.10
2016,06,16,12,05,16.10
2016,06,16,12,06,16.00
2016,06,16,12,07,16.00
2016,06,16,12,08,15.90
2016,06,16,12,09,15.90
2016,06,16,12,10,15.90
2016,06,16,12,11,16.00
2016,06,16,12,12,16.00
2016,06,16,12,13,16.00
2016,06,16,12,14,16.00
2016,06,16,12,15,15.90
2016,06,16,12,16,15.80
2016,06,16,12,17,15.80
2016,06,16,12,18,15.80
2016,06,16,12,19,15.80
2016,06,16,12,20,15.70
2016,06,16,12,21,15.70
2016,06,16,12,22,15.70
2016,06,16,12,23,15.70
2016,06,16,12,24,15.80
2016,06,16,12,25,15.80
2016,06,16,12,26,15.80
2016,06,16,12,27,15.90
2016,06,16,12,28,16.00
2016,06,16,12,29,16.00
2016,06,16,12,30,16.00
2016,06,16,12,31,15.90
2016,06,16,12,32,15.70
2016,06,16,12,33,15.60
2016,06,16,12,34,15.40
2016,06,16,12,35,15.30
2016,06,16,12,36,15.20
2016,06,16,12,37,15.10
2016,06,16,12,38,15.00
2016,06,16,12,39,14.90
2016,06,16,12,40,14.80
2016,06,16,12,41,14.70
2016,06,16,12,42,14.60
2016,06,16,12,43,14.50
2016,06,16,12,44,14.40
2016,06,16,12,45,14.30
2016,06,16,12,46,14.30
2016,06,16,12,47,14.30
2016,06,16,12,48,14.20
2016,06,16,12,49,14.20
2016,06,16,12,50,14.30
2016,06,16,12,51,14.40
2016,06,16,12,52,14.40
2016,06,16,12,53,14.30
2016,06,16,12,54,14.30
2016,06,16,12,55,14.30
2016,06,16,12,56,14.10
2016,06,16,12,57,14.00
2016,06,16,12,58,13.90
2016,06,16,12,59,13.80
2016,06,16,13,00,13.80
2016,06,16,13,01,13.80
2016,06,16,13,02,13.70
2016,06,16,13,03,13.70
2016,06,16,13,04,13.60
2016,06,16,13,05,13.60
2016,06,16,13,06,13.60
2016,06,16,13,07,13.60
2016,06,16,13,08,13.60
2016,06,16,13,09,13.60
2016,06,16,13,10,13.60
2016,06,16,13,11,13.60
2016,06,16,13,12,13.50
2016,06,16,13,13,13.50
2016,06,16,13,14,13.40
2016,06,16,13,15,13.30
2016,06,16,13,16,13.30
2016,06,16,13,17,13.30
2016,06,16,13,18,13.20
2016,06,16,13,19,13.10
2016,06,16,13,20,13.10
2016,06,16,13,21,13.00
2016,06,16,13,22,13.00
2016,06,16,13,23,13.00
2016,06,16,13,24,13.10
2016,06,16,13,25,13.10
2016,06,16,13,26,13.10
2016,06,16,13,27,13.10
2016,06,16,13,28,13.10
2016,06,16,13,29,13.10
2016,06,16,13,30,13.20
2016,06,16,13,31,13.20
2016,06,16,13,32,13.20
2016,06,16,13,33,13.20
2016,06,16,13,34,13.20
2016,06,16,13,35,13.10
2016,06,16,13,36,13.10
2016,06,16,13,37,13.20
2016,06,16,13,38,13.20
2016,06,16,13,39,13.20
2016,06,16,13,40,13.20
2016,06,16,13,41,13.30
2016,06,16,13,42,13.40
2016,06,16,13,43,13.50
2016,06,16,13,44,13.60
2016,06,16,13,45,13.70
2016,06,16,13,46,13.90
2016,06,16,13,47,14.00
2016,06,16,13,48,14.10
2016,06,16,13,49,14.20
2016,06,16,13,50,14.30
2016,06,16,13,51,14.40
2016,06,16,13,52,14.40
2016,06,16,13,53,14.50
2016,06,16,13,54,14.50
2016,06,16,13,55,14.60
2016,06,16,13,56,14.70
2016,06,16,13,57,14.80
2016,06,16,13,58,14.70
2016,06,16,13,59,14.80
2016,06,16,14,00,14.80
2016,06,16,14,01,14.80
2016,06,16,14,02,14.80
2016,06,16,14,03,14.90
2016,06,16,14,04,14.90
2016,06,16,14,05,14.90
2016,06,16,14,06,14.80
2016,06,16,14,07,14.80
2016,06,16,14,08,14.80
2016,06,16,14,09,14.80
2016,06,16,14,10,14.70
2016,06,16,14,11,14.70
2016,06,16,14,12,14.70
2016,06,16,14,13,14.70
2016,06,16,14,14,14.70
2016,06,16,14,15,14.80
2016,06,16,14,16,14.80
2016,06,16,14,17,14.80
2016,06,16,14,18,14.80
2016,06,16,14,19,14.90
2016,06,16,14,20,14.90
2016,06,16,14,21,15.00
2016,06,16,14,22,15.10
2016,06,16,14,23,15.10
2016,06,16,14,24,15.10
2016,06,16,14,25,15.20
2016,06,16,14,26,15.20
2016,06,16,14,27,15.20
2016,06,16,14,28,15.20
2016,06,16,14,29,15.20
2016,06,16,14,30,15.10
2016,06,16,14,31,15.10
2016,06,16,14,32,15.10
2016,06,16,14,33,15.10
2016,06,16,14,34,15.10
2016,06,16,14,35,15.20
2016,06,16,14,36,15.20
2016,06,16,14,37,15.20
2016,06,16,14,38,15.20
2016,06,16,14,39,15.20
2016,06,16,14,40,15.20
2016,06,16,14,41,15.20
2016,06,16,14,42,15.20
2016,06,16,14,43,15.20
2016,06,16,14,44,15.10
2016,06,16,14,45,15.10
2016,06,16,14,46,15.00
2016,06,16,14,47,15.00
2016,06,16,14,48,14.90
2016,06,16,14,49,14.90
2016,06,16,14,50,14.90
2016,06,16,14,51,15.00
2016,06,16,14,52,15.00
2016,06,16,14,53,15.10
2016,06,16,14,54,15.10
2016,06,16,14,55,15.10
2016,06,16,14,56,15.10
2016,06,16,14,57,15.10
2016,06,16,14,58,15.10
2016,06,16,14,59,15.20
2016,06,16,15,00,15.20
2016,06,16,15,01,15.30
2016,06,16,15,02,15.30
2016,06,16,15,03,15.30
2016,06,16,15,04,15.30
2016,06,16,15,05,15.30
2016,06,16,15,06,15.40
2016,06,16,15,07,15.40
2016,06,16,15,08,15.40
2016,06,16,15,09,15.50
2016,06,16,15,10,15.50
2016,06,16,15,11,15.50
2016,06,16,15,12,15.50
2016,06,16,15,13,15.60
2016,06,16,15,14,15.60
2016,06,16,15,15,15.60
2016,06,16,15,16,15.60
2016,06,16,15,17,15.60
2016,06,16,15,18,15.60
2016,06,16,15,19,15.70
2016,06,16,15,20,15.70
2016,06,16,15,21,15.70
2016,06,16,15,22,15.70
2016,06,16,15,23,15.70
2016,06,16,15,24,15.80
2016,06,16,15,25,15.80
2016,06,16,15,26,15.80
2016,06,16,15,27,15.80
2016,06,16,15,28,15.80
2016,06,16,15,29,15.80
2016,06,16,15,30,15.90
2016,06,16,15,31,16.00
2016,06,16,15,32,16.10
2016,06,16,15,33,16.20
2016,06,16,15,34,16.30
2016,06,16,15,35,16.40
2016,06,16,15,36,16.40
2016,06,16,15,37,16.40
2016,06,16,15,38,16.40
2016,06,16,15,39,16.40
2016,06,16,15,40,16.40
2016,06,16,15,41,16.50
2016,06,16,15,42,16.50
2016,06,16,15,43,16.50
2016,06,16,15,44,16.60
2016,06,16,15,45,16.70
2016,06,16,15,46,16.80
2016,06,16,15,47,16.80
2016,06,16,15,48,16.80
2016,06,16,15,49,16.80
2016,06,16,15,50,16.80
2016,06,16,15,51,16.80
2016,06,16,15,52,16.80
2016,06,16,15,53,16.70
2016,06,16,15,54,16.70
2016,06,16,15,55,16.70
2016,06,16,15,56,16.70
2016,06,16,15,57,16.70
2016,06,16,15,58,16.70
2016,06,16,15,59,16.70
2016,06,16,16,00,16.60
2016,06,16,16,01,16.60
2016,06,16,16,02,16.70
2016,06,16,16,03,16.70
2016,06,16,16,04,16.80
2016,06,16,16,05,16.80
2016,06,16,16,06,16.70
2016,06,16,16,07,16.70
2016,06,16,16,08,16.70
2016,06,16,16,09,16.70
2016,06,16,16,10,16.70
2016,06,16,16,11,16.70
2016,06,16,16,12,16.70
2016,06,16,16,13,16.70
2016,06,16,16,14,16.70
2016,06,16,16,15,16.70
2016,06,16,16,16,16.60
2016,06,16,16,17,16.60
2016,06,16,16,18,16.60
2016,06,16,16,19,16.60
2016,06,16,16,20,16.50
2016,06,16,16,21,16.50
2016,06,16,16,22,16.50
2016,06,16,16,23,16.50
2016,06,16,16,24,16.40
2016,06,16,16,25,16.30
2016,06,16,16,26,16.20
2016,06,16,16,27,16.10
2016,06,16,16,28,16.10
2016,06,16,16,29,16.00
2016,06,16,16,30,16.00
2016,06,16,16,31,15.90
2016,06,16,16,32,15.80
2016,06,16,16,33,15.80
2016,06,16,16,34,15.70
2016,06,16,16,35,15.70
2016,06,16,16,36,15.70
2016,06,16,16,37,15.70
2016,06,16,16,38,15.60
2016,06,16,16,39,15.60
2016,06,16,16,40,15.60
2016,06,16,16,41,15.60
2016,06,16,16,42,15.50
2016,06,16,16,43,15.50
2016,06,16,16,44,15.50
2016,06,16,16,45,15.50
2016,06,16,16,46,15.50
2016,06,16,16,47,15.60
2016,06,16,16,48,15.50
2016,06,16,16,49,15.50
2016,06,16,16,50,15.50
2016,06,16,16,51,15.50
2016,06,16,16,52,15.50
2016,06,16,16,53,15.50
2016,06,16,16,54,15.50
2016,06,16,16,55,15.50
2016,06,16,16,56,15.50
2016,06,16,16,57,15.50
2016,06,16,16,58,15.50
2016,06,16,16,59,15.50
2016,06,16,17,00,15.50
2016,06,16,17,01,15.50
2016,06,16,17,02,15.50
2016,06,16,17,03,15.50
2016,06,16,17,04,15.60
2016,06,16,17,05,15.60
2016,06,16,17,06,15.60
2016,06,16,17,07,15.70
2016,06,16,17,08,15.70
2016,06,16,17,09,15.70
2016,06,16,17,10,15.60
2016,06,16,17,11,15.60
2016,06,16,17,12,15.60
2016,06,16,17,13,15.60
2016,06,16,17,14,15.60
2016,06,16,17,15,15.60
2016,06,16,17,16,15.60
2016,06,16,17,17,15.60
2016,06,16,17,18,15.60
2016,06,16,17,19,15.60
2016,06,16,17,20,15.60
2016,06,16,17,21,15.60
2016,06,16,17,22,15.60
2016,06,16,17,23,15.60
2016,06,16,17,24,15.60
2016,06,16,17,25,15.60
2016,06,16,17,26,15.60
2016,06,16,17,27,15.60
2016,06,16,17,28,15.70
2016,06,16,17,29,15.60
2016,06,16,17,30,15.70
2016,06,16,17,31,15.70
2016,06,16,17,32,15.70
2016,06,16,17,33,15.70
2016,06,16,17,34,15.70
2016,06,16,17,35,15.70
2016,06,16,17,36,15.70
2016,06,16,17,37,15.70
2016,06,16,17,38,15.70
2016,06,16,17,39,15.80
2016,06,16,17,40,15.80
2016,06,16,17,41,15.80